Terminal Aerodrome Forecast
Issued by NWS Boston, MA

Home | Current Version | Previous Version | Text Only | Print | Product List | Glossary On
Versions: 1 2 3 4 5 6 7 8 9 10 11 12 13 14 15 16 17 18 19 20 21 22 23 24 25 26 27 28 29 30 31 32 33 34 35 36 37 38 39 40 41 42 43 44 45 46
000
FTUS41 KBOX 262112 AAA
TAFBDL
TAF AMD
KBDL 262112Z 2621/2724 02012KT 3SM -SN OVC020
     FM270000 02014KT 3/4SM -SN BR OVC015
     FM270300 02014G25KT 1/2SM SN FG OVC008
     FM270700 36015G35KT 1/4SM +SN BLSN OVC008=

USA.gov is the U.S. government's official web portal to all federal, state and local government web resources and services.